Content
SEND FEEDBACK

Daily
Averages
Monthly
Summary
Mauritania

NOUADHIBOU, MAURITANIA


Home > Africa > Mauritania
Elevation: 10 feet     Latitude: 20 56N     Longitude: 017 02W

WEATHER
 
SELECT A DAY
Number of Records: 117,968;   Date Range: 7/1/96 - 8/19/14
 
SHARE

PRINT THIS DATA

[ ← Previous Day ]
WEATHER ALMANAC - MARCH 29, 2014
[ Next Day → ]
[ °C ]   °F
Weather ElementAverageHighLow
Temperature64.3 °F70 °F (3:00 pm)60 °F (3:00 am)
Dewpoint54.6 °F60 °F (9:00 am)50 °F (2:00 pm)
Humidity70.9 %92 % (3:00 am)47 % (12:00 pm)
Barometer30.01 in30.06 in (12:00 pm)29.95 in (5:00 pm)
Wind Speed14.4 mph23 mph (5:00 pm)
Weather ElementAverage
Visibility4.5 mi
Wind DirectionNNW (328.5 °)

Weather ElementTotal
Precipitation---
Growing Degree Days15 (Base 50)
Averaged from 33 records on March 29, 2014
WEATHER CONDITIONS BREAKOUT
WIND DIRECTION BREAKOUT
WEATHER BY HOUR - MARCH 29, 2014
[ °C ]   °F
Local TimeTemperatureDewpointHumidityBarometerVisibilityWind DirectionWind SpeedGust SpeedPrecipitationEventsConditions
12:00 AM62.6 °F57.2 °F82 %30.04 in5.0 miNNW (340°)10.4 mph
1:00 AM62.6 °F57.2 °F82 %30.01 in5.0 miNNW (340°)10.4 mph
2:00 AM60.8 °F57.2 °F88 %30.01 in5.0 miNNW (340°)10.4 mph
3:00 AM60.0 °F58.0 °F92 %30.01 in5.0 miNNW (340°)8.1 mph
3:00 AM60.8 °F57.2 °F88 %30.01 in5.0 miNNW (330°)8.1 mph
4:00 AM60.8 °F55.4 °F82 %29.98 in5.0 miNNW (340°)9.2 mph
5:00 AM60.8 °F57.2 °F88 %29.98 in5.0 miNW (320°)8.1 mph
6:00 AM60.8 °F57.2 °F88 %29.98 in5.0 miNW (320°)6.9 mph
6:00 AM60.0 °F58.0 °F91 %30.00 in5.0 miNW (320°)6.9 mph
7:00 AM60.8 °F57.2 °F88 %29.98 in5.0 miNW (320°)5.8 mphPartly Cloudy
8:00 AM60.8 °F57.2 °F88 %30.01 in5.0 miNNW (340°)8.1 mphPartly Cloudy
9:00 AM64.0 °F60.0 °F84 %30.05 in5.0 miNNW (340°)11.5 mphPartly Cloudy
9:00 AM64.4 °F57.2 °F77 %30.04 in5.0 miNNW (340°)10.4 mphPartly Cloudy
10:00 AM66.2 °F55.4 °F68 %30.04 in5.0 miNorth (350°)15.0 mphScattered Clouds
11:00 AM68.0 °F53.6 °F60 %30.04 in5.0 miNNW (340°)13.8 mphMostly Cloudy
12:00 PM69.8 °F51.8 °F53 %30.04 in5.0 miNW (320°)15.0 mph
12:00 PM69.0 °F53.0 °F47 %30.06 in5.0 miNW (320°)16.1 mphScattered Clouds
1:00 PM69.8 °F51.8 °F53 %30.04 in5.0 miNW (310°)16.1 mph
2:00 PM68.0 °F50.0 °F52 %30.01 in5.0 miNW (320°)21.9 mph
3:00 PM70.0 °F54.0 °F47 %30.01 in5.0 miNW (320°)18.4 mph
3:00 PM68.0 °F51.8 °F56 %29.98 in5.0 miNW (310°)19.6 mph
4:00 PM68.0 °F51.8 °F56 %29.98 in3.7 miNW (320°)19.6 mphWidespread Dust
5:00 PM66.2 °F51.8 °F60 %29.95 in3.7 miNW (320°)23.0 mphWidespread Dust
5:50 PM66.2 °F51.8 °F60 %29.95 in2.5 miNW (320°)21.9 mphLow Drifting Sand
6:00 PM66.2 °F51.8 °F60 %29.95 in2.5 miNW (320°)21.9 mphLow Drifting Sand
6:00 PM67.0 °F53.0 °F52 %29.99 in5.0 miNW (320°)20.7 mph
7:00 PM64.4 °F51.8 °F64 %29.98 in2.5 miNW (320°)19.6 mphLow Drifting Sand
8:00 PM62.6 °F53.6 °F72 %29.98 in2.5 miNNW (330°)19.6 mphLow Drifting Sand
8:27 PM62.6 °F53.6 °F72 %30.01 in4.3 miNNW (330°)16.1 mph
9:00 PM62.0 °F55.0 °F73 %30.03 in5.0 miNNW (340°)16.1 mph
9:00 PM62.6 °F53.6 °F72 %30.01 in4.3 miNNW (330°)16.1 mph
10:00 PM62.6 °F53.6 °F72 %30.04 in4.3 miNNW (330°)15.0 mph
11:00 PM62.6 °F53.6 °F72 %30.04 in4.3 miNNW (340°)13.8 mphPartly Cloudy
Hourly data recorded from GQPP, located miles away from Nouadhibou, Mauritania







STORIES FROM OUR PARTNERS